| time (UTC) | temp F | wind direction | speed knots | gust knots | rain 1hr in | rain 24hr in | rain mn in | humidity % | barometer mb |
| 20260906024552 | 60 | 0 | 0.9 | 6.1 | 0.00 | 0.04 | 0.04 | 70 | 1018.3 |
| 20260906023122 | 61 | 13 | 7.8 | 11.3 | 0.00 | 0.04 | 0.04 | 68 | 1017.8 |
| 20260906021556 | 61 | 352 | 5.2 | 10.4 | 0.00 | 0.04 | 0.04 | 67 | 1017.9 |
| 20260906020053 | 62 | 352 | 4.3 | 10.4 | 0.00 | 0.04 | 0.04 | 67 | 1017.9 |
| 20260906014606 | 62 | 352 | 6.1 | 10.4 | 0.00 | 0.04 | 0.04 | 66 | 1017.8 |
| 20260906013058 | 63 | 350 | 5.2 | 12.2 | 0.00 | 0.04 | 0.04 | 65 | 1018.0 |
| 20260906011556 | 63 | 360 | 7.0 | 13.0 | 0.00 | 0.04 | 0.04 | 64 | 1018.0 |
| 20260906010107 | 64 | 5 | 8.7 | 13.0 | 0.00 | 0.04 | 0.04 | 62 | 1018.0 |
| 20260906004613 | 65 | 347 | 7.0 | 13.0 | 0.00 | 0.04 | 0.04 | 59 | 1018.0 |
| 20260906003113 | 66 | 352 | 7.0 | 13.0 | 0.00 | 0.04 | 0.04 | 57 | 1018.1 |
| 20260906001604 | 68 | 313 | 8.7 | 14.8 | 0.00 | 0.04 | 0.04 | 54 | 1018.2 |
| 20260906000111 | 69 | 331 | 9.6 | 16.5 | 0.00 | 0.04 | 0.04 | 52 | 1018.1 |
| 20260905234602 | 69 | 322 | 10.4 | 15.6 | 0.00 | 0.04 | 0.04 | 52 | 1018.3 |
| 20260905233109 | 70 | 317 | 7.0 | 13.9 | 0.00 | 0.04 | 0.04 | 50 | 1018.4 |
| 20260905231602 | 71 | 315 | 6.1 | 11.3 | 0.00 | 0.04 | 0.04 | 49 | 1018.4 |
| 20260905230057 | 71 | 290 | 5.2 | 10.4 | 0.00 | 0.04 | 0.04 | 45 | 1018.3 |
| 20260905224604 | 72 | 327 | 4.3 | 12.2 | 0.00 | 0.04 | 0.04 | 43 | 1018.3 |
| 20260905223052 | 72 | 291 | 3.5 | 8.7 | 0.00 | 0.04 | 0.04 | 44 | 1018.3 |
| 20260905221558 | 71 | 323 | 2.6 | 7.8 | 0.00 | 0.04 | 0.04 | 44 | 1018.4 |
| 20260905220059 | 72 | 0 | 0.0 | 7.0 | 0.00 | 0.04 | 0.04 | 44 | 1018.5 |
| 20260905214553 | 72 | 325 | 0.9 | 7.0 | 0.00 | 0.04 | 0.04 | 44 | 1018.6 |
| 20260905213107 | 71 | 17 | 0.0 | 7.0 | 0.00 | 0.04 | 0.04 | 42 | 1018.6 |
| 20260905211609 | 71 | 5 | 1.7 | 6.1 | 0.00 | 0.04 | 0.04 | 43 | 1018.6 |
| 20260905210104 | 70 | 308 | 3.5 | 7.8 | 0.00 | 0.04 | 0.04 | 44 | 1018.7 |
| 20260905204600 | 70 | 273 | 2.6 | 7.0 | 0.00 | 0.04 | 0.04 | 45 | 1018.8 |
| 20260905203100 | 70 | 288 | 2.6 | 8.7 | 0.00 | 0.04 | 0.04 | 45 | 1018.9 |
| 20260905201554 | 69 | 0 | 1.7 | 7.8 | 0.00 | 0.04 | 0.04 | 45 | 1019.0 |
| 20260905200058 | 69 | 285 | 0.9 | 5.2 | 0.00 | 0.04 | 0.04 | 45 | 1019.0 |
| 20260905194604 | 68 | 285 | 2.6 | 7.8 | 0.00 | 0.04 | 0.04 | 47 | 1019.1 |
| 20260905193057 | 68 | 0 | 1.7 | 7.0 | 0.00 | 0.04 | 0.04 | 47 | 1019.1 |
| 20260905191552 | 68 | 0 | 2.6 | 7.8 | 0.00 | 0.04 | 0.04 | 48 | 1019.2 |
| 20260905184603 | 67 | 300 | 5.2 | 8.7 | 0.00 | 0.04 | 0.04 | 54 | 1019.4 |
| 20260905183125 | 66 | 298 | 3.5 | 8.7 | 0.00 | 0.04 | 0.04 | 55 | 1019.5 |
| 20260905181557 | 67 | 308 | 1.7 | 9.6 | 0.00 | 0.04 | 0.04 | 56 | 1019.5 |
| 20260905180057 | 66 | 313 | 3.5 | 7.0 | 0.00 | 0.04 | 0.04 | 57 | 1019.8 |
| 20260905174555 | 64 | 340 | 4.3 | 8.7 | 0.00 | 0.04 | 0.04 | 60 | 1019.8 |
| 20260905173101 | 63 | 332 | 3.5 | 8.7 | 0.00 | 0.04 | 0.04 | 68 | 1019.8 |
| 20260905171605 | 61 | 339 | 2.6 | 5.2 | 0.01 | 0.04 | 0.04 | 70 | 1020.0 |
| 20260905170057 | 60 | 344 | 1.7 | 7.8 | 0.01 | 0.04 | 0.04 | 73 | 1019.9 |
| 20260905164602 | 59 | 328 | 0.9 | 4.3 | 0.01 | 0.04 | 0.04 | 77 | 1020.1 |
| 20260905163054 | 58 | 328 | 0.0 | 3.5 | 0.01 | 0.04 | 0.04 | 84 | 1019.9 |
| 20260905161557 | 57 | 0 | 2.6 | 5.2 | 0.00 | 0.03 | 0.03 | 88 | 1019.8 |
| 20260905160053 | 56 | 331 | 2.6 | 4.3 | 0.01 | 0.03 | 0.03 | 89 | 1019.8 |
| 20260905154601 | 55 | 0 | 0.0 | 0.0 | 0.01 | 0.03 | 0.03 | 90 | 1019.7 |
| 20260905153059 | 55 | 0 | 0.0 | 0.0 | 0.01 | 0.03 | 0.03 | 91 | 1019.8 |
| 20260905151559 | 55 | 0 | 0.0 | 3.5 | 0.01 | 0.03 | 0.03 | 91 | 1019.6 |
| 20260905150104 | 54 | 332 | 1.7 | 4.3 | 0.00 | 0.02 | 0.02 | 92 | 1019.2 |
| 20260905144553 | 53 | 0 | 0.0 | 0.0 | 0.01 | 0.02 | 0.02 | 92 | 1019.3 |
| 20260905143101 | 52 | 332 | 1.7 | 7.8 | 0.01 | 0.02 | 0.02 | 91 | 1019.2 |
| 20260905141558 | 51 | 336 | 3.5 | 8.7 | 0.02 | 0.02 | 0.02 | 92 | 1018.8 |
| 20260905140104 | 51 | 360 | 5.2 | 8.7 | 0.02 | 0.02 | 0.02 | 91 | 1018.6 |
| 20260905134553 | 51 | 293 | 2.6 | 7.0 | 0.01 | 0.01 | 0.01 | 90 | 1019.3 |
| 20260905133100 | 51 | 291 | 3.5 | 9.6 | 0.01 | 0.01 | 0.01 | 88 | 1019.7 |
| 20260905131610 | 52 | 281 | 6.1 | 9.6 | 0.00 | 0.00 | 0.00 | 86 | 1019.9 |
| 20260905130105 | 52 | 281 | 6.1 | 10.4 | 0.00 | 0.00 | 0.00 | 85 | 1019.4 |
| 20260905124558 | 52 | 284 | 0.0 | 5.2 | 0.00 | 0.00 | 0.00 | 83 | 1018.6 |
| 20260905123104 | 52 | 0 | 0.0 | 3.5 | 0.00 | 0.00 | 0.00 | 81 | 1018.8 |
| 20260905121553 | 53 | 283 | 1.7 | 6.1 | 0.00 | 0.00 | 0.00 | 80 | 1017.8 |
| 20260905120106 | 53 | 273 | 2.6 | 7.0 | 0.00 | 0.00 | 0.00 | 78 | 1018.7 |
| 20260905114601 | 53 | 273 | 3.5 | 7.8 | 0.00 | 0.00 | 0.00 | 77 | 1018.6 |
| 20260905113054 | 53 | 280 | 2.6 | 8.7 | 0.00 | 0.00 | 0.00 | 77 | 1018.1 |
| 20260905111612 | 53 | 294 | 5.2 | 8.7 | 0.00 | 0.00 | 0.00 | 76 | 1017.9 |
| 20260905110058 | 53 | 290 | 6.1 | 10.4 | 0.00 | 0.00 | 0.00 | 77 | 1017.8 |
| 20260905104555 | 53 | 284 | 5.2 | 9.6 | 0.00 | 0.00 | 0.00 | 78 | 1017.7 |
| 20260905103054 | 53 | 281 | 5.2 | 9.6 | 0.00 | 0.00 | 0.00 | 77 | 1017.6 |
| 20260905101605 | 53 | 290 | 5.2 | 9.6 | 0.00 | 0.00 | 0.00 | 77 | 1017.3 |
| 20260905100053 | 52 | 283 | 4.3 | 11.3 | 0.00 | 0.00 | 0.00 | 78 | 1017.5 |
| 20260905094553 | 51 | 288 | 2.6 | 4.3 | 0.00 | 0.00 | 0.00 | 78 | 1017.3 |
| 20260905093101 | 52 | 286 | 3.5 | 8.7 | 0.00 | 0.00 | 0.00 | 77 | 1017.2 |
| 20260905091554 | 52 | 283 | 3.5 | 7.8 | 0.00 | 0.00 | 0.00 | 75 | 1017.4 |
| 20260905090059 | 52 | 311 | 1.7 | 4.3 | 0.00 | 0.00 | 0.00 | 74 | 1017.0 |
| 20260905084600 | 51 | 317 | 1.7 | 4.3 | 0.00 | 0.00 | 0.00 | 77 | 1016.3 |
| 20260905083058 | 52 | 0 | 0.0 | 1.7 | 0.00 | 0.00 | 0.00 | 75 | 1016.5 |
| 20260905081603 | 52 | 0 | 0.0 | 0.0 | 0.00 | 0.00 | 0.00 | 76 | 1016.1 |
| 20260905080054 | 52 | 317 | 0.9 | 5.2 | 0.00 | 0.00 | 0.00 | 76 | 1015.9 |
| 20260905074558 | 52 | 0 | 0.0 | 0.0 | 0.00 | 0.00 | 0.00 | 73 | 1016.7 |
| 20260905073103 | 53 | 0 | 0.0 | 0.0 | 0.00 | 0.00 | 0.00 | 72 | 1017.5 |
| 20260905071552 | 54 | 0 | 0.0 | 4.3 | 0.00 | 0.00 | 0.00 | 70 | 1017.1 |
| 20260905070052 | 54 | 318 | 1.7 | 7.0 | 0.00 | 0.00 | 0.00 | 68 | 1017.0 |
| 20260905064551 | 55 | 322 | 3.5 | 10.4 | 0.00 | 0.00 | 0.00 | 68 | 1016.4 |
| 20260905063055 | 55 | 328 | 7.0 | 11.3 | 0.00 | 0.00 | 0.00 | 69 | 1016.0 |
| 20260905061554 | 55 | 327 | 6.1 | 10.4 | 0.00 | 0.00 | 0.00 | 68 | 1016.3 |
| 20260905060053 | 56 | 298 | 3.5 | 9.6 | 0.00 | 0.00 | 0.00 | 66 | 1016.5 |
| 20260905054551 | 56 | 296 | 4.3 | 8.7 | 0.00 | 0.00 | 0.00 | 65 | 1016.5 |
| 20260905053136 | 57 | 0 | 1.7 | 7.0 | 0.00 | 0.00 | 0.00 | 65 | 1016.4 |
| 20260905051554 | 57 | 310 | 3.5 | 7.8 | 0.00 | 0.00 | 0.00 | 66 | 1015.9 |
| 20260905050052 | 58 | 302 | 5.2 | 10.4 | 0.00 | 0.00 | 0.00 | 65 | 1015.9 |
| 20260905044601 | 58 | 326 | 2.6 | 5.2 | 0.00 | 0.00 | 0.00 | 62 | 1016.4 |
| 20260905043056 | 60 | 0 | 0.0 | 2.6 | 0.00 | 0.00 | 0.00 | 59 | 1016.1 |
| 20260905041552 | 61 | 0 | 0.0 | 0.0 | 0.00 | 0.00 | 0.00 | 55 | 1015.8 |
| 20260905040053 | 60 | 0 | 0.0 | 3.5 | 0.00 | 0.00 | 0.00 | 55 | 1016.0 |
| 20260905034559 | 60 | 0 | 0.0 | 0.0 | 0.00 | 0.00 | 0.00 | 54 | 1015.5 |
| 20260905033103 | 61 | 0 | 0.0 | 4.3 | 0.00 | 0.00 | 0.00 | 52 | 1015.0 |
| 20260905031553 | 62 | 338 | 4.3 | 8.7 | 0.00 | 0.00 | 0.00 | 51 | 1014.6 |